• In Latvia
  • List of Countries
  • For 7 days
  • Water Temperature
  • Satellite Maps
  • Weather Map
  • Weather Widgets
  • user-avatar
    Login

    Hourly Weather San Luis

    Today, 24 June, Saturday

    Time Temperature Precipitation Wind Pressure Humidity
    00:00 +10°C° 0 mm 3 mps 698 mmHg 90%
    01:00 +10°C° 0 mm 3 mps 698 mmHg 91%
    02:00 +10°C° 0 mm 3 mps 698 mmHg 91%
    03:00 +10°C° 0 mm 3 mps 698 mmHg 91%
    04:00 +10°C° 0 mm 3 mps 698 mmHg 90%
    05:00 +10°C° 0 mm 3 mps 697 mmHg 90%
    06:00 +10°C° 0 mm 2 mps 697 mmHg 91%
    07:00 +9°C° 0 mm 2 mps 697 mmHg 92%
    08:00 +9°C° 0 mm 2 mps 698 mmHg 93%
    09:00 +12°C° 0 mm 2 mps 698 mmHg 84%
    10:00 +14°C° 0 mm 2 mps 698 mmHg 76%
    11:00 +16°C° 0 mm 3 mps 698 mmHg 67%
    12:00 +17°C° 0 mm 3 mps 698 mmHg 64%
    13:00 +19°C° 0 mm 4 mps 697 mmHg 60%
    14:00 +20°C° 0 mm 4 mps 696 mmHg 57%
    15:00 +19°C° 0 mm 4 mps 696 mmHg 61%
    16:00 +18°C° 0 mm 3 mps 695 mmHg 65%
    17:00 +17°C° 0 mm 3 mps 695 mmHg 69%
    18:00 +17°C° 0 mm 3 mps 695 mmHg 74%
    19:00 +16°C° 0 mm 3 mps 695 mmHg 80%
    20:00 +14°C° 0 mm 3 mps 695 mmHg 85%
    21:00 +14°C° 0 mm 3 mps 695 mmHg 85%
    22:00 +14°C° 0 mm 4 mps 695 mmHg 85%
    23:00 +14°C° 0 mm 4 mps 694 mmHg 85%

    Tomorrow, 25 June, Sunday

    Time Temperature Precipitation Wind Pressure Humidity
    00:00 +14°C° 0 mm 5 mps 694 mmHg 85%
    01:00 +14°C° 0 mm 5 mps 694 mmHg 84%
    02:00 +14°C° 0 mm 6 mps 694 mmHg 84%
    03:00 +14°C° 0 mm 6 mps 693 mmHg 85%
    04:00 +14°C° 0 mm 6 mps 693 mmHg 85%
    05:00 +14°C° 0 mm 6 mps 693 mmHg 86%
    06:00 +14°C° 0 mm 6 mps 693 mmHg 86%
    07:00 +14°C° 0 mm 6 mps 693 mmHg 86%
    08:00 +14°C° 0 mm 6 mps 693 mmHg 86%
    09:00 +16°C° 0 mm 7 mps 694 mmHg 78%
    10:00 +20°C° 0 mm 8 mps 694 mmHg 70%
    11:00 +22°C° 0 mm 9 mps 695 mmHg 61%
    12:00 +23°C° 0 mm 10 mps 694 mmHg 57%
    13:00 +24°C° 0 mm 10 mps 694 mmHg 53%
    14:00 +26°C° 0 mm 10 mps 693 mmHg 48%
    15:00 +24°C° 0 mm 8 mps 693 mmHg 52%
    16:00 +23°C° 0 mm 6 mps 693 mmHg 56%
    17:00 +21°C° 0 mm 5 mps 693 mmHg 60%
    18:00 +20°C° 0 mm 4 mps 693 mmHg 66%
    19:00 +19°C° 0 mm 4 mps 693 mmHg 71%
    20:00 +18°C° 0 mm 3 mps 693 mmHg 76%
    21:00 +18°C° 0 mm 4 mps 694 mmHg 78%
    22:00 +17°C° 0 mm 4 mps 694 mmHg 80%
    23:00 +17°C° 0 mm 4 mps 694 mmHg 82%

    Day after tomorrow, 26 June, Monday

    Time Temperature Precipitation Wind Pressure Humidity
    00:00 +17°C° 0 mm 4 mps 694 mmHg 83%
    01:00 +15°C° 0 mm 4 mps 694 mmHg 85%
    02:00 +15°C° 0 mm 4 mps 694 mmHg 87%
    03:00 +16°C° 0 mm 3 mps 694 mmHg 89%
    04:00 +14°C° 0 mm 3 mps 693 mmHg 91%
    05:00 +14°C° 0 mm 3 mps 693 mmHg 93%
    06:00 +13°C° 0 mm 3 mps 694 mmHg 93%
    07:00 +14°C° 0 mm 2 mps 694 mmHg 93%
    08:00 +14°C° 0 mm 2 mps 694 mmHg 94%
    09:00 +16°C° 0 mm 3 mps 695 mmHg 86%
    10:00 +17°C° 0 mm 3 mps 695 mmHg 78%
    11:00 +19°C° 0 mm 3 mps 695 mmHg 71%
    12:00 +19°C° 0 mm 3 mps 695 mmHg 70%
    13:00 +19°C° 0 mm 4 mps 695 mmHg 70%
    14:00 +19°C° 0 mm 4 mps 694 mmHg 70%
    15:00 +18°C° 0 mm 4 mps 694 mmHg 74%
    16:00 +16°C° 0 mm 5 mps 694 mmHg 79%
    17:00 +15°C° 0 mm 5 mps 694 mmHg 83%
    18:00 +14°C° 0.7 mm 5 mps 695 mmHg 85%
    19:00 +14°C° 0.7 mm 5 mps 695 mmHg 86%
    20:00 +13°C° 0.7 mm 4 mps 695 mmHg 87%
    21:00 +13°C° 0.6 mm 5 mps 696 mmHg 88%
    22:00 +12°C° 0.6 mm 5 mps 696 mmHg 88%
    23:00 +12°C° 0.6 mm 5 mps 696 mmHg 89%

    27 June, Tuesday

    Time Temperature Precipitation Wind Pressure Humidity
    00:00 +12°C° 0.1 mm 5 mps 696 mmHg 89%
    01:00 +10°C° 0.1 mm 5 mps 696 mmHg 88%
    02:00 +10°C° 0.1 mm 6 mps 696 mmHg 88%
    03:00 +10°C° 0.2 mm 5 mps 696 mmHg 88%
    04:00 +9°C° 0.2 mm 5 mps 696 mmHg 87%
    05:00 +9°C° 0.2 mm 5 mps 696 mmHg 87%
    06:00 +9°C° 0.6 mm 5 mps 697 mmHg 88%
    07:00 +8°C° 0.6 mm 6 mps 698 mmHg 88%
    08:00 +8°C° 0.6 mm 6 mps 699 mmHg 89%
    09:00 +8°C° 0.2 mm 6 mps 699 mmHg 87%
    10:00 +8°C° 0.2 mm 6 mps 700 mmHg 84%
    11:00 +8°C° 0.2 mm 7 mps 701 mmHg 82%
    12:00 +8°C° 0 mm 7 mps 700 mmHg 79%
    13:00 +8°C° 0 mm 6 mps 700 mmHg 77%
    14:00 +8°C° 0 mm 6 mps 700 mmHg 74%
    15:00 +8°C° 0 mm 6 mps 700 mmHg 75%
    16:00 +8°C° 0 mm 5 mps 700 mmHg 75%
    17:00 +7°C° 0 mm 5 mps 701 mmHg 75%
    18:00 +7°C° 0 mm 4 mps 701 mmHg 78%
    19:00 +7°C° 0 mm 3 mps 701 mmHg 81%
    20:00 +5°C° 0 mm 3 mps 702 mmHg 84%
    21:00 +6°C° 0 mm 2 mps 702 mmHg 84%
    22:00 +5°C° 0 mm 2 mps 702 mmHg 85%
    23:00 +6°C° 0 mm 1 mps 703 mmHg 85%

    28 June, Wednesday

    Time Temperature Precipitation Wind Pressure Humidity
    00:00 +6°C° 0 mm 1 mps 702 mmHg 85%
    01:00 +6°C° 0 mm 1 mps 702 mmHg 84%
    02:00 +6°C° 0 mm 1 mps 702 mmHg 83%
    03:00 +6°C° 0 mm 1 mps 702 mmHg 82%
    04:00 +6°C° 0 mm 1 mps 702 mmHg 81%
    05:00 +5°C° 0 mm 1 mps 701 mmHg 80%
    06:00 +6°C° 0 mm 1 mps 702 mmHg 80%
    07:00 +6°C° 0 mm 1 mps 702 mmHg 79%
    08:00 +6°C° 0 mm 1 mps 702 mmHg 78%
    09:00 +8°C° 0 mm 1 mps 702 mmHg 69%
    10:00 +10°C° 0 mm 1 mps 703 mmHg 60%
    11:00 +13°C° 0 mm 1 mps 703 mmHg 50%
    12:00 +14°C° 0 mm 1 mps 702 mmHg 47%
    13:00 +15°C° 0 mm 1 mps 702 mmHg 44%
    14:00 +16°C° 0 mm 1 mps 701 mmHg 42%
    15:00 +15°C° 0 mm 1 mps 701 mmHg 46%
    16:00 +14°C° 0 mm 1 mps 701 mmHg 50%
    17:00 +13°C° 0 mm 1 mps 701 mmHg 54%
    18:00 +12°C° 0 mm 1 mps 701 mmHg 58%
    19:00 +11°C° 0 mm 1 mps 701 mmHg 61%
    20:00 +10°C° 0 mm 1 mps 701 mmHg 65%
    21:00 +10°C° 0 mm 1 mps 702 mmHg 64%
    22:00 +9°C° 0 mm 2 mps 702 mmHg 63%
    23:00 +8°C° 0 mm 2 mps 702 mmHg 62%

    29 June, Thursday

    Time Temperature Precipitation Wind Pressure Humidity
    00:00 +8°C° 0 mm 2 mps 702 mmHg 61%
    01:00 +8°C° 0 mm 2 mps 702 mmHg 60%
    02:00 +8°C° 0 mm 3 mps 702 mmHg 60%
    03:00 +8°C° 0 mm 3 mps 702 mmHg 62%
    04:00 +8°C° 0 mm 3 mps 701 mmHg 64%
    05:00 +7°C° 0 mm 3 mps 701 mmHg 67%
    06:00 +7°C° 0 mm 3 mps 702 mmHg 69%
    07:00 +7°C° 0 mm 3 mps 702 mmHg 72%
    08:00 +8°C° 0 mm 3 mps 702 mmHg 74%
    09:00 +10°C° 0 mm 3 mps 703 mmHg 65%
    10:00 +13°C° 0 mm 3 mps 703 mmHg 55%
    11:00 +16°C° 0 mm 3 mps 704 mmHg 46%
    12:00 +17°C° 0 mm 3 mps 704 mmHg 42%
    13:00 +18°C° 0 mm 3 mps 703 mmHg 38%
    14:00 +19°C° 0 mm 3 mps 703 mmHg 34%
    15:00 +18°C° 0 mm 3 mps 702 mmHg 38%
    16:00 +17°C° 0 mm 2 mps 702 mmHg 42%
    17:00 +16°C° 0 mm 2 mps 701 mmHg 46%
    18:00 +14°C° 0 mm 2 mps 701 mmHg 50%
    19:00 +13°C° 0 mm 2 mps 702 mmHg 54%
    20:00 +12°C° 0 mm 2 mps 702 mmHg 59%
    21:00 +10°C° 0 mm 2 mps 702 mmHg 57%
    22:00 +10°C° 0 mm 2 mps 702 mmHg 56%
    23:00 +10°C° 0 mm 3 mps 702 mmHg 54%
    Show more